Regional Weather Roundup
Issued by NWS Northern Indiana

Home | Current Version | Previous Version | Text Only | Print | Product List | Glossary On
Versions: 1 2 3 4 5 6 7 8 9 10 11 12 13 14 15 16 17 18 19 20 21 22 23 24 25 26 27 28 29 30 31 32 33 34 35 36 37 38 39 40 41 42 43 44 45 46 47 48 49 50
000
ASUS43 KIWX 010110
RWRIWX

KIWX WEATHER ROUNDUP
NATIONAL WEATHER SERVICE NORTHERN INDIANA
900 PM EDT TUE MAY 31 2016

NOTE: "FAIR" INDICATES FEW OR NO CLOUDS BELOW 12,000 FEET WITH NO
SIGNIFICANT WEATHER AND/OR OBSTRUCTIONS TO VISIBILITY.

* THESE STATIONS ARE NOT UNDER NWS QUALITY CONTROL. THEY ALSO MAY NOT
  REPORT WEATHER SUCH AS PRECIPITATION OR FOG.

INZ001>027-010200-
NORTHERN INDIANA

CITY           SKY/WX    TMP DP  RH WIND       PRES   REMARKS
GARY*          MOCLDY    64  64 100 E8        29.98S
MICHIGAN CITY* CLOUDY    63  63 100 CALM      29.99F
LAPORTE*       CLOUDY    68  68 100 N8        29.98F
KNOX*          CLOUDY    68  59  73 SE7       30.00R
SOUTH BEND     LGT RAIN  64  61  90 N6        30.01S
ELKHART*       CLOUDY    68  64  88 N8        30.01
GOSHEN         CLOUDY    71  58  63 N10       30.00R
MONTICELLO*    CLOUDY    71  56  60 NE9       29.95S
LOGANSPORT*    CLOUDY    68  61  77 N9        29.98S
ROCHESTER*     CLOUDY    70  64  83 W7        30.01R
WARSAW*        LGT RAIN  70  59  68 CALM      30.01R
ANGOLA*          N/A     75  43  31 E9        30.01S
FORT WAYNE     PTCLDY    77  50  38 E15       29.98R
HUNTINGTON*    CLOUDY   N/A N/A N/A E6        29.97R
PERU/GRISSOM   CLOUDY    70  61  72 N10       29.97S
MARION*        CLOUDY    76  58  54 NW8       29.97S

$$
INZ028>050-010200-
CENTRAL INDIANA

CITY           SKY/WX    TMP DP  RH WIND       PRES   REMARKS
LAFAYETTE      CLEAR     73  58  59 NE7       29.93S
KOKOMO*        PTCLDY    72  57  60 N12       29.97R
MUNCIE*        CLOUDY    78  61  55 CALM      29.96R
INDIANAPOLIS   PTCLDY    81  56  42 SE3       29.93S

$$
MIZ043>046-050>051-056>058-064>065-071>073-077>080-010200-
SOUTHWEST LOWER MICHIGAN

CITY           SKY/WX    TMP DP  RH WIND       PRES   REMARKS
BATTLE CREEK   CLOUDY    77  44  30 SE7       30.01R
BENTON HARBOR  CLOUDY    66  56  70 VRB3      30.00F
COLDWATER*     CLEAR     74  43  33 E7        30.01S
HILLSDALE*     CLEAR     74  40  30 SE5       30.03S
HOLLAND        CLOUDY    68  51  54 NW6       30.01S
GRAND RAPIDS   PTCLDY    77  50  38 SE7       29.99S
KALAMAZOO      PTCLDY    74  49  41 CALM      29.99S
STURGIS*       PTCLDY    77  47  34 SE12      29.99R
THREE RIVERS*  FAIR      73  56  53 W14       30.01R

$$
OHZ001>008-015>018-024>025-010200-
NORTHWEST OHIO

CITY           SKY/WX    TMP DP  RH WIND       PRES   REMARKS
WAUSEON*         N/A     75  75 100 E12       30.02R
DEFIANCE       CLEAR     77  45  32 E9        30.01R
FINDLAY        PTCLDY    76  42  29 E10       30.00S
TOLEDO EXPRESS PTCLDY    73  49  42 E9        30.01S
TOLEDO METCALF PTCLDY    73  50  44 E6        30.03R
LIMA           PTCLDY    76  48  37 E14       30.00R

$$
AND FOR LAKE MICHIGAN COASTAL AND OPEN LAKE BUOY OBSERVATIONS

STATION/POSITION TEMP    WIND        PRES    VSBY  WAVE
                 AIR SEA DIR/SP/G                  HT/PER
                 (F)     (DEG/KT/KT) (MB)    (MI)  (FT/S)
CALUMET HARBOR                       1014.5
MICHIGAN CITY     62      30/ 14/ 15   N/A
BURNS HARBOR      62      70/ 15/ 18 1015.9F
SAINT JOSEPH      64     360/  5/  8 1016.6F
SOUTH LAKE BUOY   56 55  360/  4/  4 1015.4R         1/ 3
4 MI NW BRIDGMAN  63 64   20/ 10/ 12   N/A           2
MICHIGAN CITY     62 62   40/  6/ 10   N/A           2/ 4

$$
&&



USA.gov is the U.S. government's official web portal to all federal, state and local government web resources and services.